Regional Weather Roundup
Issued by NWS

Home | Current Version | Previous Version | Graphics & Text | Print | Product List | Glossary On
Versions: 1 2 3 4 5 6 7 8 9 10 11 12 13 14 15 16 17 18 19 20 21 22 23 24 25 26 27 28 29 30 31 32 33 34 35 36 37 38 39 40 41 42 43 44 45 46 47 48 49 50
199
ASUS45 KCYS 240610
RWRWY

WYOMING REGIONAL WEATHER ROUNDUP
NATIONAL WEATHER SERVICE CHEYENNE WY
1200 AM MDT FRI MAR 24 2017

NOTE:  "FAIR" INDICATES FEW OR NO CLOUDS BELOW 12,000 FEET
WITH NO SIGNIFICANT WEATHER AND/OR OBSTRUCTIONS TO VISIBILITY.

WYZ001-240700-
YELLOWSTONE NATIONAL PARK

CITY           SKY/WX    TMP DP  RH WIND       PRES   REMARKS
LK YELLOWSTONE   N/A     24  20  84 CALM      30.06R
6HR MIN TEMP:  24; 6HR MAX TEMP:  40;

W YELLOWSTONE  NOT AVBL

$$
WYZ002>013-054>058-071-098>099-240700-
NORTHERN WYOMING

CITY           SKY/WX    TMP DP  RH WIND       PRES   REMARKS
JACKSON        FAIR      30  28  93 NW6       30.03R WCI  24
CODY           MOCLDY    37  32  82 SW7       30.02R WCI  32
GREYBULL       FAIR      38  34  85 SE5       29.99R WCI  34
6HR MIN TEMP:  38; 6HR MAX TEMP:  50;

WORLAND        CLOUDY    37  36  96 S7        29.98R WCI  32
6HR MIN TEMP:  35; 6HR MAX TEMP:  46;

SHERIDAN       FAIR      39  33  79 CALM      29.98S
6HR MIN TEMP:  38; 6HR MAX TEMP:  45;

BUFFALO        FAIR      36  29  75 W8        29.97F WCI  30
6HR MIN TEMP:  36; 6HR MAX TEMP:  43;

GILLETTE       FAIR      36  35  96 NW5       29.94S WCI  32
6HR MIN TEMP:  36; 6HR MAX TEMP:  41;

HULETT         FOG       36  34  93 S7        29.97R VSB<1/4 WCI  30
NEWCASTLE      FAIR      41  32  70 NW10      29.94R

$$
WYZ014>020-022>026-101>103-240700-
CENTRAL WYOMING

CITY           SKY/WX    TMP DP  RH WIND       PRES   REMARKS
BIG PINEY      FAIR      30  25  81 N9        30.01R WCI  22
6HR MIN TEMP:  30; 6HR MAX TEMP:  36; 6HR PCP: TRACE;

PINEDALE       FAIR      30  28  93 W6        30.01R WCI  24
DUBOIS         MOCLDY    30  28  93 CALM      30.02R
LANDER         CLOUDY    38  35  89 W3        29.99S
6HR MIN TEMP:  37; 6HR MAX TEMP:  39; 6HR PCP:  0.05;

RIVERTON       CLOUDY    37  36  96 SW5       30.00S WCI  33
6HR MIN TEMP:  37; 6HR MAX TEMP:  38; 6HR PCP:  0.06;

CASPER         CLOUDY    37  35  92 N8        29.97R WCI  31
6HR MIN TEMP:  36; 6HR MAX TEMP:  41;

DOUGLAS        FAIR      37  32  82 NW14      29.96R WCI  28
6HR MIN TEMP:  37; 6HR MAX TEMP:  42;


$$
WYZ021-027>030-104>119-240700-
SOUTHERN WYOMING

CITY           SKY/WX    TMP DP  RH WIND       PRES   REMARKS
EVANSTON       FAIR      28  25  88 SW5       30.06R WCI  23
6HR MIN TEMP:  28; 6HR MAX TEMP:  35; 6HR PCP: TRACE;

KEMMERER         N/A     32  28  86 CALM      30.03R
FORT BRIDGER   CLOUDY    36  34  92 W14       30.06R WCI  27
ROCK SPRINGS   CLOUDY    36  30  79 NE9       30.00R WCI  29
6HR MIN TEMP:  36; 6HR MAX TEMP:  39; 6HR PCP:  0.02;

DIXON            N/A     36  30  79 NE13      29.95R WCI  27
RAWLINS        MOCLDY    35  28  75 N13       29.96R WCI  26
6HR MIN TEMP:  35; 6HR MAX TEMP:  43; 6HR PCP: TRACE;

SARATOGA       CLOUDY    34  30  86 N9        29.95R WCI  26
LARAMIE        CLOUDY    33  27  78 N16G23    29.91R WCI  23
6HR MIN TEMP:  33; 6HR MAX TEMP:  53;

CHEYENNE       CLOUDY    35  32  88 N23G40    29.86R WCI  23
6HR MIN TEMP:  35; 6HR MAX TEMP:  58; 6HR PCP: TRACE;

TORRINGTON     CLOUDY    41  36  82 N14G22    29.89S
6HR MIN TEMP:  40; 6HR MAX TEMP:  56; 6HR PCP: TRACE;

PINE BLUFFS    CLOUDY    37  36  93 N22G36    29.83R WCI  27

$$




USA.gov is the U.S. government's official web portal to all federal, state and local government web resources and services.